Location: ??? ?????
(30.6482°N, 60.5850°E)
Time: 22:24:18
(UTC+00:00)

Cosmos 2058 Rocket - Pass Details

Date: 09 April 2020
Orbit: 609 x 640 km, 82.5° (Epoch: 24 May)

Event Time Altitude Azimuth Distance (km) Brightness Sun altitude
Rises 15:33:40 0° 181° (S) 2,925 6.3 -15.8°
Reaches altitude 10° 15:35:54 10° 180° (S) 2,022 5.5 -16.2°
Maximum altitude 15:40:23 76° 95° (E) 663 3.0 -17.1°
Drops below altitude 10° 15:44:53 10° 10° (N) 2,032 5.8 -18.0°
Sets 15:47:08 0° 9° (N) 2,942 6.7 -18.5°
